Clear Lake, IA

5:39 PM CST on February 20, 2017 (GMT -0600)
Mason City Municipal

Weather History for KMCW - June, 2012

Change the Weather History Date:

Thursday, June 28, 2012

  Actual Average Record
Temperature  
Mean Temperature 76 °F 71 °F  
Max Temperature 89 °F 83 °F 102 °F (1931)
Min Temperature 63 °F 60 °F 40 °F (1911)
Degree Days  
Heating Degree Days 0 0  
Month to date heating degree days 19 44  
Since 1 June heating degree days 19 44  
Since 1 July heating degree days 6122 7679  
Cooling Degree Days 11 7  
Month to date cooling degree days 176 125  
Year to date cooling degree days 258 160  
Since 1 June cooling degree days 176 125  
Growing Degree Days 27 (Base 50)    
Moisture  
Dew Point 66 °F    
Average Humidity 60    
Maximum Humidity 88    
Minimum Humidity 31    
Precipitation  
Precipitation T in 0.16 in 1.84 in (1924)
Month to date precipitation 2.74 4.81  
Year to date precipitation 14.13 17.29  
Snow  
Snow 0.00 in 0.00 in - ()
Month to date snowfall 0.0 0.0  
Since 1 June snowfall 0.0 0.0  
Since 1 July snowfall 18.8 41.2  
Snow Depth 0.00 in    
Sea Level Pressure  
Sea Level Pressure 29.86 in    
Wind  
Wind Speed 7 mph (North)    
Max Wind Speed 22 mph    
Max Gust Speed 26 mph    
Visibility 8 miles    
Events Rain    
T = Trace of Precipitation, MM = Missing Value Source: NWS Daily Summary

Daily Weather History Graph

Daily Weather History Graph

Search for Another Location

Airport or City:

Trip Planner

Search our weather history database for the weather conditions in past years. The results will help you decide how hot, cold, wet, or windy it might be!

Date:

Astronomy

Jun. 28, 2012 Rise Set
Actual Time 5:36 AM CDT 8:57 PM CDT
Civil Twilight 5:00 AM CDT 9:32 PM CDT
Nautical Twilight 4:14 AM CDT 10:18 PM CDT
Astronomical Twilight 3:17 AM CDT 11:15 PM CDT
Moon 3:27 PM CDT (6/28) 1:15 AM CDT (6/28)
Length of Visible Light 16h 31m
Length of Day
15h 20m
Waxing Gibbous, 67% of the Moon is Illuminated
Jun 28
Waxing Gibbous
Jul 3
Full
Jul 10
Last Quarter
Jul 18
New
Jul 26
First Quarter

Hourly Weather History & Observations

Time (CDT) Temp. Heat Index Dew Point Humidity Pressure Visibility Wind Dir Wind Speed Gust Speed Precip Events Conditions
12:53 AM 78.1 °F - 73.9 °F 87% 29.71 in 7.0 mi South 8.1 mph - N/A   Clear
1:53 AM 78.1 °F - 73.9 °F 87% 29.71 in 6.0 mi SSW 5.8 mph - N/A   Clear
2:53 AM 79.0 °F - 73.9 °F 84% 29.70 in 7.0 mi SSW 5.8 mph - N/A   Clear
3:53 AM 78.1 °F - 73.9 °F 87% 29.71 in 6.0 mi WSW 3.5 mph - N/A   Clear
4:53 AM 77.0 °F - 73.9 °F 90% 29.73 in 4.0 mi NW 11.5 mph - N/A   Clear
5:53 AM 75.9 °F - 72.0 °F 87% 29.78 in 4.0 mi NNW 8.1 mph - N/A   Clear
6:53 AM 77.0 °F - 72.0 °F 84% 29.76 in 5.0 mi NNE 8.1 mph - N/A   Haze
7:53 AM 80.1 °F 83.8 °F 72.0 °F 76% 29.84 in 7.0 mi North 6.9 mph - N/A   Clear
8:53 AM 81.0 °F 85.2 °F 72.0 °F 74% 29.87 in 7.0 mi Calm Calm - N/A   Clear
9:53 AM 80.1 °F 83.8 °F 72.0 °F 76% 29.91 in 8.0 mi NNW 18.4 mph - N/A   Mostly Cloudy
10:03 AM 80.6 °F 84.6 °F 71.6 °F 74% 29.94 in 8.0 mi NNW 18.4 mph 23.0 mph 0.00 in Rain Light Rain
10:13 AM 80.6 °F 84.6 °F 71.6 °F 74% 29.93 in 9.0 mi North 21.9 mph 25.3 mph 0.00 in   Scattered Clouds
10:53 AM 84.0 °F 88.4 °F 70.0 °F 63% 29.89 in 10.0 mi NNE 16.1 mph 24.2 mph 0.00 in   Clear
11:53 AM 86.0 °F 85.4 °F 59.0 °F 40% 29.88 in 10.0 mi NNE 13.8 mph 18.4 mph N/A   Clear
12:53 PM 88.0 °F 87.6 °F 60.1 °F 39% 29.90 in 10.0 mi North 11.5 mph - N/A   Clear
1:53 PM 88.0 °F 87.1 °F 59.0 °F 37% 29.91 in 10.0 mi North 11.5 mph - N/A   Clear
2:53 PM 87.1 °F 84.9 °F 53.1 °F 31% 29.91 in 10.0 mi NNE 11.5 mph - N/A   Clear
3:53 PM 87.1 °F 85.7 °F 55.9 °F 35% 29.91 in 10.0 mi North 9.2 mph - N/A   Clear
4:53 PM 87.1 °F 85.7 °F 55.9 °F 35% 29.90 in 10.0 mi NNE 8.1 mph - N/A   Clear
5:53 PM 87.1 °F 86.1 °F 57.9 °F 37% 29.91 in 10.0 mi North 4.6 mph - N/A   Clear
6:53 PM 84.0 °F 84.5 °F 62.1 °F 47% 29.91 in 10.0 mi NNE 3.5 mph - N/A   Clear
7:53 PM 79.0 °F - 63.0 °F 58% 29.90 in 10.0 mi NNE 5.8 mph - N/A   Clear
8:53 PM 73.0 °F - 62.1 °F 68% 29.90 in 10.0 mi Calm Calm - N/A   Clear
9:53 PM 69.1 °F - 61.0 °F 75% 29.91 in 10.0 mi Calm Calm - N/A   Clear
10:53 PM 66.9 °F - 61.0 °F 81% 29.91 in 10.0 mi Calm Calm - N/A   Clear
11:53 PM 64.9 °F - 60.1 °F 84% 29.92 in 10.0 mi Calm Calm - N/A   Clear